"Water temperature from three different depths in Oyako Ike, Skarvsnes, East Antarctica",,,,
,,,,
Date,Time,2.3 m,5.3 m,7.3 m
2010/1/13,10:00:00,4.871,5.224,5.182
2010/1/13,10:30:00,5.611,6.01,5.834
2010/1/13,11:00:00,6.829,6.352,6.11
2010/1/13,11:30:00,6.916,6.881,5.88
2010/1/13,12:00:00,7.053,6.883,5.756
2010/1/13,12:30:00,7.058,6.85,5.674
2010/1/13,13:00:00,7.2,6.965,5.62
2010/1/13,13:30:00,7.625,6.991,5.581
2010/1/13,14:00:00,7.862,7.041,5.552
2010/1/13,14:30:00,8.083,7.108,5.531
2010/1/13,15:00:00,8.053,7.138,5.514
2010/1/13,15:30:00,8.032,7.298,5.501
2010/1/13,16:00:00,7.968,7.346,5.489
2010/1/13,16:30:00,8.008,7.284,5.478
2010/1/13,17:00:00,8.2,7.41,5.47
2010/1/13,17:30:00,8.005,7.437,5.464
2010/1/13,18:00:00,8.151,7.365,5.459
2010/1/13,18:30:00,8.14,7.373,5.455
2010/1/13,19:00:00,8.199,7.466,5.452
2010/1/13,19:30:00,8.166,7.379,5.449
2010/1/13,20:00:00,8.118,7.315,5.448
2010/1/13,20:30:00,8.165,7.336,5.447
2010/1/13,21:00:00,8.09,7.464,5.448
2010/1/13,21:30:00,8.073,7.598,5.448
2010/1/13,22:00:00,8.031,7.616,5.449
2010/1/13,22:30:00,7.948,7.348,5.45
2010/1/13,23:00:00,7.939,7.448,5.451
2010/1/13,23:30:00,7.873,7.416,5.452
2010/1/14,0:00:00,7.826,7.3,5.453
2010/1/14,0:30:00,7.741,7.22,5.455
2010/1/14,1:00:00,7.698,7.252,5.456
2010/1/14,1:30:00,7.619,7.245,5.458
2010/1/14,2:00:00,7.583,7.348,5.46
2010/1/14,2:30:00,7.488,7.181,5.461
2010/1/14,3:00:00,7.394,7.402,5.463
2010/1/14,3:30:00,7.423,7.22,5.464
2010/1/14,4:00:00,7.362,7.22,5.466
2010/1/14,4:30:00,7.336,7.106,5.467
2010/1/14,5:00:00,7.277,7.034,5.469
2010/1/14,5:30:00,7.21,7.026,5.47
2010/1/14,6:00:00,7.187,6.904,5.47
2010/1/14,6:30:00,7.159,6.906,5.472
2010/1/14,7:00:00,7.182,6.809,5.474
2010/1/14,7:30:00,7.16,6.74,5.475
2010/1/14,8:00:00,7.202,6.762,5.476
2010/1/14,8:30:00,7.202,6.723,5.478
2010/1/14,9:00:00,7.266,6.798,5.479
2010/1/14,9:30:00,7.328,6.96,5.48
2010/1/14,10:00:00,7.363,7.13,5.482
2010/1/14,10:30:00,7.404,7.179,5.483
2010/1/14,11:00:00,7.451,7.311,5.485
2010/1/14,11:30:00,7.507,7.449,5.486
2010/1/14,12:00:00,7.593,7.14,5.488
2010/1/14,12:30:00,7.657,7.346,5.491
2010/1/14,13:00:00,8.042,7.393,5.493
2010/1/14,13:30:00,8.19,7.433,5.495
2010/1/14,14:00:00,8.31,7.344,5.497
2010/1/14,14:30:00,8.307,7.655,5.499
2010/1/14,15:00:00,8.367,7.622,5.501
2010/1/14,15:30:00,8.495,8.079,5.504
2010/1/14,16:00:00,8.52,7.344,5.507
2010/1/14,16:30:00,8.591,7.832,5.51
2010/1/14,17:00:00,8.777,7.554,5.512
2010/1/14,17:30:00,8.638,7.319,5.516
2010/1/14,18:00:00,8.745,7.737,5.519
2010/1/14,18:30:00,8.804,7.714,5.522
2010/1/14,19:00:00,8.812,7.867,5.526
2010/1/14,19:30:00,8.767,7.944,5.53
2010/1/14,20:00:00,8.755,7.98,5.533
2010/1/14,20:30:00,8.704,7.515,5.536
2010/1/14,21:00:00,8.636,7.94,5.54
2010/1/14,21:30:00,8.582,7.969,5.544
2010/1/14,22:00:00,8.47,7.963,5.548
2010/1/14,22:30:00,8.431,7.918,5.552
2010/1/14,23:00:00,8.38,7.866,5.556
2010/1/14,23:30:00,8.311,7.995,5.56
2010/1/15,0:00:00,8.224,7.632,5.564
2010/1/15,0:30:00,8.156,7.807,5.568
2010/1/15,1:00:00,8.101,7.704,5.572
2010/1/15,1:30:00,8.092,7.729,5.576
2010/1/15,2:00:00,8.021,7.671,5.58
2010/1/15,2:30:00,7.983,7.591,5.584
2010/1/15,3:00:00,7.916,7.711,5.588
2010/1/15,3:30:00,7.847,7.545,5.591
2010/1/15,4:00:00,7.798,7.494,5.594
2010/1/15,4:30:00,7.756,7.244,5.598
2010/1/15,5:00:00,7.67,7.25,5.602
2010/1/15,5:30:00,7.615,7.294,5.605
2010/1/15,6:00:00,7.639,7.362,5.609
2010/1/15,6:30:00,7.621,7.353,5.611
2010/1/15,7:00:00,7.555,7.098,5.615
2010/1/15,7:30:00,7.554,7.177,5.618
2010/1/15,8:00:00,7.615,7.175,5.621
2010/1/15,8:30:00,7.586,7.363,5.624
2010/1/15,9:00:00,7.617,7.587,5.627
2010/1/15,9:30:00,7.657,7.084,5.63
2010/1/15,10:00:00,7.695,7.543,5.632
2010/1/15,10:30:00,7.75,7.471,5.635
2010/1/15,11:00:00,7.788,7.436,5.637
2010/1/15,11:30:00,7.886,7.675,5.638
2010/1/15,12:00:00,7.827,7.247,5.638
2010/1/15,12:30:00,7.862,7.354,5.637
2010/1/15,13:00:00,7.853,7.446,5.634
2010/1/15,13:30:00,7.812,7.418,5.632
2010/1/15,14:00:00,7.869,7.786,5.63
2010/1/15,14:30:00,7.928,7.841,5.628
2010/1/15,15:00:00,8.125,7.844,5.626
2010/1/15,15:30:00,8,7.732,5.624
2010/1/15,16:00:00,7.978,8.04,5.621
2010/1/15,16:30:00,7.927,7.961,5.622
2010/1/15,17:00:00,7.892,7.917,5.622
2010/1/15,17:30:00,7.765,7.687,5.621
2010/1/15,18:00:00,7.736,7.769,5.621
2010/1/15,18:30:00,7.563,7.575,5.625
2010/1/15,19:00:00,7.447,7.47,5.63
2010/1/15,19:30:00,7.316,7.335,5.63
2010/1/15,20:00:00,7.177,7.163,5.634
2010/1/15,20:30:00,7.04,7.088,5.635
2010/1/15,21:00:00,6.892,6.925,5.635
2010/1/15,21:30:00,6.779,6.795,5.636
2010/1/15,22:00:00,6.749,6.74,5.636
2010/1/15,22:30:00,6.693,6.729,5.636
2010/1/15,23:00:00,6.644,6.682,5.638
2010/1/15,23:30:00,6.563,6.586,5.64
2010/1/16,0:00:00,6.456,6.497,5.638
2010/1/16,0:30:00,6.388,6.422,5.64
2010/1/16,1:00:00,6.286,6.337,5.64
2010/1/16,1:30:00,6.241,6.29,5.644
2010/1/16,2:00:00,6.124,6.151,5.645
2010/1/16,2:30:00,6.085,6.122,5.647
2010/1/16,3:00:00,5.892,5.933,5.648
2010/1/16,3:30:00,5.823,5.861,5.65
2010/1/16,4:00:00,5.726,5.779,5.652
2010/1/16,4:30:00,5.579,5.6,5.652
2010/1/16,5:00:00,5.497,5.552,5.652
2010/1/16,5:30:00,5.385,5.448,5.65
2010/1/16,6:00:00,5.32,5.333,5.65
2010/1/16,6:30:00,5.208,5.244,5.649
2010/1/16,7:00:00,5.144,5.209,5.649
2010/1/16,7:30:00,5.06,5.113,5.648
2010/1/16,8:00:00,5.031,5.085,5.648
2010/1/16,8:30:00,4.971,5.002,5.646
2010/1/16,9:00:00,4.932,4.954,5.644
2010/1/16,9:30:00,4.874,4.917,5.642
2010/1/16,10:00:00,4.851,4.864,5.64
2010/1/16,10:30:00,4.8,4.841,5.637
2010/1/16,11:00:00,4.78,4.803,5.634
2010/1/16,11:30:00,4.748,4.785,5.631
2010/1/16,12:00:00,4.734,4.769,5.627
2010/1/16,12:30:00,4.72,4.748,5.623
2010/1/16,13:00:00,4.699,4.735,5.618
2010/1/16,13:30:00,4.682,4.709,5.613
2010/1/16,14:00:00,4.643,4.681,5.608
2010/1/16,14:30:00,4.587,4.617,5.602
2010/1/16,15:00:00,4.589,4.616,5.597
2010/1/16,15:30:00,4.546,4.57,5.591
2010/1/16,16:00:00,4.54,4.571,5.584
2010/1/16,16:30:00,4.49,4.518,5.578
2010/1/16,17:00:00,4.478,4.515,5.571
2010/1/16,17:30:00,4.442,4.481,5.564
2010/1/16,18:00:00,4.424,4.465,5.557
2010/1/16,18:30:00,4.392,4.413,5.55
2010/1/16,19:00:00,4.397,4.421,5.543
2010/1/16,19:30:00,4.381,4.415,5.535
2010/1/16,20:00:00,4.343,4.368,5.527
2010/1/16,20:30:00,4.303,4.322,5.519
2010/1/16,21:00:00,4.28,4.318,5.512
2010/1/16,21:30:00,4.235,4.283,5.504
2010/1/16,22:00:00,4.207,4.25,5.496
2010/1/16,22:30:00,4.169,4.2,5.488
2010/1/16,23:00:00,4.126,4.176,5.479
2010/1/16,23:30:00,4.11,4.149,5.471
2010/1/17,0:00:00,4.024,4.066,5.463
2010/1/17,0:30:00,4.019,4.053,5.454
2010/1/17,1:00:00,4.018,4.072,5.446
2010/1/17,1:30:00,4.004,4.035,5.438
2010/1/17,2:00:00,3.904,3.907,5.429
2010/1/17,2:30:00,3.911,3.962,5.421
2010/1/17,3:00:00,3.882,3.907,5.412
2010/1/17,3:30:00,3.87,3.913,5.404
2010/1/17,4:00:00,3.812,3.861,5.395
2010/1/17,4:30:00,3.787,3.812,5.386
2010/1/17,5:00:00,3.812,3.853,5.378
2010/1/17,5:30:00,3.791,3.82,5.369
2010/1/17,6:00:00,3.778,3.807,5.36
2010/1/17,6:30:00,3.767,3.808,5.352
2010/1/17,7:00:00,3.789,3.807,5.342
2010/1/17,7:30:00,3.756,3.804,5.334
2010/1/17,8:00:00,3.632,3.654,5.324
2010/1/17,8:30:00,3.666,3.735,5.315
2010/1/17,9:00:00,3.654,3.677,5.307
2010/1/17,9:30:00,3.641,3.66,5.298
2010/1/17,10:00:00,3.618,3.645,5.289
2010/1/17,10:30:00,3.617,3.639,5.28
2010/1/17,11:00:00,3.61,3.643,5.271
2010/1/17,11:30:00,3.599,3.62,5.262
2010/1/17,12:00:00,3.592,3.619,5.253
2010/1/17,12:30:00,3.6,3.636,5.244
2010/1/17,13:00:00,3.606,3.633,5.235
2010/1/17,13:30:00,3.605,3.631,5.225
2010/1/17,14:00:00,3.604,3.631,5.216
2010/1/17,14:30:00,3.598,3.622,5.207
2010/1/17,15:00:00,3.582,3.602,5.198
2010/1/17,15:30:00,3.565,3.599,5.189
2010/1/17,16:00:00,3.555,3.585,5.18
2010/1/17,16:30:00,3.547,3.582,5.17
2010/1/17,17:00:00,3.535,3.562,5.162
2010/1/17,17:30:00,3.525,3.554,5.152
2010/1/17,18:00:00,3.524,3.553,5.143
2010/1/17,18:30:00,3.518,3.549,5.134
2010/1/17,19:00:00,3.501,3.532,5.125
2010/1/17,19:30:00,3.489,3.518,5.116
2010/1/17,20:00:00,3.482,3.518,5.107
2010/1/17,20:30:00,3.47,3.505,5.098
2010/1/17,21:00:00,3.455,3.502,5.089
2010/1/17,21:30:00,3.445,3.48,5.081
2010/1/17,22:00:00,3.441,3.477,5.072
2010/1/17,22:30:00,3.433,3.469,5.063
2010/1/17,23:00:00,3.417,3.457,5.054
2010/1/17,23:30:00,3.409,3.464,5.045
2010/1/18,0:00:00,3.393,3.409,5.037
2010/1/18,0:30:00,3.362,3.415,5.028
2010/1/18,1:00:00,3.355,3.408,5.02
2010/1/18,1:30:00,3.279,3.4,5.011
2010/1/18,2:00:00,3.286,3.395,5.003
2010/1/18,2:30:00,3.286,3.324,4.995
2010/1/18,3:00:00,3.288,3.324,4.986
2010/1/18,3:30:00,3.308,3.321,4.978
2010/1/18,4:00:00,3.299,3.324,4.97
2010/1/18,4:30:00,3.26,3.32,4.962
2010/1/18,5:00:00,3.261,3.31,4.954
2010/1/18,5:30:00,3.27,3.311,4.946
2010/1/18,6:00:00,3.239,3.3,4.938
2010/1/18,6:30:00,3.241,3.279,4.93
2010/1/18,7:00:00,3.224,3.279,4.922
2010/1/18,7:30:00,3.248,3.282,4.914
2010/1/18,8:00:00,3.259,3.304,4.906
2010/1/18,8:30:00,3.285,3.302,4.898
2010/1/18,9:00:00,3.301,3.322,4.891
2010/1/18,9:30:00,3.332,3.344,4.883
2010/1/18,10:00:00,3.398,3.375,4.875
2010/1/18,10:30:00,3.474,3.402,4.868
2010/1/18,11:00:00,3.466,3.451,4.86
2010/1/18,11:30:00,3.532,3.498,4.853
2010/1/18,12:00:00,3.552,3.526,4.845
2010/1/18,12:30:00,3.539,3.517,4.838
2010/1/18,13:00:00,3.644,3.568,4.831
2010/1/18,13:30:00,3.683,3.63,4.823
2010/1/18,14:00:00,3.769,3.693,4.816
2010/1/18,14:30:00,3.779,3.798,4.809
2010/1/18,15:00:00,3.841,3.797,4.802
2010/1/18,15:30:00,3.932,3.83,4.795
2010/1/18,16:00:00,4.083,3.812,4.788
2010/1/18,16:30:00,4.093,4.019,4.782
2010/1/18,17:00:00,4.067,4.045,4.776
2010/1/18,17:30:00,4.227,4.181,4.769
2010/1/18,18:00:00,4.269,4.209,4.763
2010/1/18,18:30:00,4.303,4.258,4.757
2010/1/18,19:00:00,4.43,4.298,4.752
2010/1/18,19:30:00,4.448,4.37,4.746
2010/1/18,20:00:00,4.473,4.319,4.741
2010/1/18,20:30:00,4.421,4.241,4.736
2010/1/18,21:00:00,4.412,4.256,4.731
2010/1/18,21:30:00,4.607,4.37,4.727
2010/1/18,22:00:00,4.591,4.626,4.723
2010/1/18,22:30:00,4.573,4.601,4.718
2010/1/18,23:00:00,4.597,4.583,4.715
2010/1/18,23:30:00,4.538,4.557,4.711
2010/1/19,0:00:00,4.561,4.54,4.707
2010/1/19,0:30:00,4.524,4.508,4.704
2010/1/19,1:00:00,4.494,4.53,4.7
2010/1/19,1:30:00,4.508,4.538,4.697
2010/1/19,2:00:00,4.51,4.525,4.694
2010/1/19,2:30:00,4.482,4.507,4.692
2010/1/19,3:00:00,4.456,4.448,4.689
2010/1/19,3:30:00,4.418,4.419,4.686
2010/1/19,4:00:00,4.408,4.398,4.684
2010/1/19,4:30:00,4.375,4.361,4.682
2010/1/19,5:00:00,4.343,4.364,4.68
2010/1/19,5:30:00,4.34,4.372,4.677
2010/1/19,6:00:00,4.364,4.368,4.676
2010/1/19,6:30:00,4.339,4.355,4.674
2010/1/19,7:00:00,4.321,4.308,4.672
2010/1/19,7:30:00,4.277,4.28,4.671
2010/1/19,8:00:00,4.299,4.308,4.669
2010/1/19,8:30:00,4.364,4.344,4.668
2010/1/19,9:00:00,4.5,4.32,4.666
2010/1/19,9:30:00,4.471,4.373,4.665
2010/1/19,10:00:00,4.486,4.338,4.664
2010/1/19,10:30:00,4.498,4.435,4.663
2010/1/19,11:00:00,4.595,4.573,4.661
2010/1/19,11:30:00,4.903,4.604,4.66
2010/1/19,12:00:00,5.102,4.706,4.659
2010/1/19,12:30:00,5.097,4.739,4.658
2010/1/19,13:00:00,5.069,4.867,4.657
2010/1/19,13:30:00,5.296,4.863,4.656
2010/1/19,14:00:00,5.461,4.947,4.656
2010/1/19,14:30:00,5.542,4.985,4.655
2010/1/19,15:00:00,5.825,5.082,4.654
2010/1/19,15:30:00,5.9,5.088,4.653
2010/1/19,16:00:00,6.17,5.126,4.653
2010/1/19,16:30:00,6.009,5.17,4.652
2010/1/19,17:00:00,6.438,5.149,4.652
2010/1/19,17:30:00,6.245,5.237,4.652
2010/1/19,18:00:00,6.182,5.316,4.652
2010/1/19,18:30:00,6.245,5.219,4.652
2010/1/19,19:00:00,6.335,5.259,4.652
2010/1/19,19:30:00,6.353,5.335,4.652
2010/1/19,20:00:00,6.305,5.288,4.653
2010/1/19,20:30:00,6.255,5.298,4.653
2010/1/19,21:00:00,6.321,5.323,4.654
2010/1/19,21:30:00,6.222,5.342,4.655
2010/1/19,22:00:00,6.117,5.366,4.656
2010/1/19,22:30:00,6.051,5.306,4.657
2010/1/19,23:00:00,5.813,5.441,4.658
2010/1/19,23:30:00,5.736,5.426,4.66
2010/1/20,0:00:00,5.755,5.452,4.661
2010/1/20,0:30:00,5.665,5.418,4.663
2010/1/20,1:00:00,5.634,5.376,4.664
2010/1/20,1:30:00,5.634,5.325,4.666
2010/1/20,2:00:00,5.506,5.548,4.667
2010/1/20,2:30:00,5.496,5.441,4.669
2010/1/20,3:00:00,5.486,5.387,4.67
2010/1/20,3:30:00,5.438,5.296,4.672
2010/1/20,4:00:00,5.366,5.233,4.673
2010/1/20,4:30:00,5.274,5.219,4.674
2010/1/20,5:00:00,5.242,5.229,4.676
2010/1/20,5:30:00,5.214,5.193,4.677
2010/1/20,6:00:00,5.181,5.18,4.679
2010/1/20,6:30:00,5.168,5.133,4.68
2010/1/20,7:00:00,5.211,5.122,4.682
2010/1/20,7:30:00,5.202,5.174,4.683
2010/1/20,8:00:00,5.242,5.217,4.684
2010/1/20,8:30:00,5.238,5.206,4.686
2010/1/20,9:00:00,5.263,5.235,4.687
2010/1/20,9:30:00,5.32,5.222,4.688
2010/1/20,10:00:00,5.369,5.209,4.689
2010/1/20,10:30:00,5.39,5.223,4.691
2010/1/20,11:00:00,5.454,5.335,4.692
2010/1/20,11:30:00,5.554,5.555,4.693
2010/1/20,12:00:00,5.589,5.602,4.695
2010/1/20,12:30:00,5.938,5.672,4.696
2010/1/20,13:00:00,5.782,5.699,4.698
2010/1/20,13:30:00,6.331,5.73,4.699
2010/1/20,14:00:00,6.405,5.805,4.7
2010/1/20,14:30:00,6.572,5.886,4.702
2010/1/20,15:00:00,6.656,5.953,4.704
2010/1/20,15:30:00,6.757,5.943,4.705
2010/1/20,16:00:00,6.765,6.083,4.707
2010/1/20,16:30:00,6.52,6.058,5.616
2010/1/20,17:00:00,6.861,6.117,5.127
2010/1/20,17:30:00,6.859,6.066,5.01
2010/1/20,18:00:00,6.849,6.012,4.953
2010/1/20,18:30:00,6.755,6.529,4.922
2010/1/20,19:00:00,6.768,5.987,4.902
2010/1/20,19:30:00,6.947,6.121,4.891
2010/1/20,20:00:00,6.754,6.186,4.883
2010/1/20,20:30:00,6.797,6.283,4.876
2010/1/20,21:00:00,6.753,6.135,4.872
2010/1/20,21:30:00,6.684,6.131,4.869
2010/1/20,22:00:00,6.654,6.086,4.867
2010/1/20,22:30:00,6.534,5.9,4.866
2010/1/20,23:00:00,6.471,6.265,4.865
2010/1/20,23:30:00,6.515,6.289,4.865
2010/1/21,0:00:00,6.424,6.043,4.866
2010/1/21,0:30:00,6.326,5.973,4.868
2010/1/21,1:00:00,6.23,6.286,4.868
2010/1/21,1:30:00,5.97,5.974,4.869
2010/1/21,2:00:00,5.93,5.988,4.871
2010/1/21,2:30:00,5.753,5.792,4.872
2010/1/21,3:00:00,5.815,5.795,4.874
2010/1/21,3:30:00,5.694,5.748,4.876
2010/1/21,4:00:00,5.574,5.605,4.879
2010/1/21,4:30:00,5.506,5.548,4.88
2010/1/21,5:00:00,5.468,5.503,4.883
2010/1/21,5:30:00,5.31,5.374,4.884
2010/1/21,6:00:00,5.263,5.307,4.886
2010/1/21,6:30:00,5.151,5.234,4.888
2010/1/21,7:00:00,5.103,5.119,4.89
2010/1/21,7:30:00,5.106,5.12,4.893
2010/1/21,8:00:00,5.082,5.092,4.895
2010/1/21,8:30:00,5.087,5.116,4.897
2010/1/21,9:00:00,5.116,5.132,4.899
2010/1/21,9:30:00,5.141,5.159,4.901
2010/1/21,10:00:00,5.173,5.182,4.903
2010/1/21,10:30:00,5.214,5.211,4.905
2010/1/21,11:00:00,5.27,5.3,4.907
2010/1/21,11:30:00,5.369,5.377,4.908
2010/1/21,12:00:00,5.448,5.439,4.91
2010/1/21,12:30:00,5.475,5.476,4.911
2010/1/21,13:00:00,5.597,5.547,4.912
2010/1/21,13:30:00,5.578,5.473,4.913
2010/1/21,14:00:00,5.675,5.591,4.914
2010/1/21,14:30:00,5.785,5.807,4.915
2010/1/21,15:00:00,5.888,5.864,4.916
2010/1/21,15:30:00,6.07,5.991,4.917
2010/1/21,16:00:00,6.394,6.029,4.918
2010/1/21,16:30:00,6.587,6.018,4.918
2010/1/21,17:00:00,6.656,6.09,4.919
2010/1/21,17:30:00,6.563,6.128,4.921
2010/1/21,18:00:00,6.726,6.237,4.922
2010/1/21,18:30:00,6.738,6.259,4.924
2010/1/21,19:00:00,6.708,6.236,4.926
2010/1/21,19:30:00,6.72,6.302,4.927
2010/1/21,20:00:00,6.704,6.213,4.93
2010/1/21,20:30:00,6.53,6.23,4.932
2010/1/21,21:00:00,6.522,6.18,4.934
2010/1/21,21:30:00,6.584,6.19,4.937
2010/1/21,22:00:00,6.513,6.221,4.939
2010/1/21,22:30:00,6.494,6.157,4.942
2010/1/21,23:00:00,6.405,6.141,4.945
2010/1/21,23:30:00,6.239,6.165,4.948
2010/1/22,0:00:00,6.282,6.165,4.951
2010/1/22,0:30:00,6.261,6.077,4.954
2010/1/22,1:00:00,6.058,5.977,4.957
2010/1/22,1:30:00,6.02,6.051,4.96
2010/1/22,2:00:00,5.92,5.959,4.963
2010/1/22,2:30:00,5.839,5.884,4.966
2010/1/22,3:00:00,5.794,5.775,4.969
2010/1/22,3:30:00,5.814,5.81,4.972
2010/1/22,4:00:00,5.795,5.831,4.975
2010/1/22,4:30:00,5.747,5.782,4.979
2010/1/22,5:00:00,5.738,5.74,4.982
2010/1/22,5:30:00,5.672,5.687,4.985
2010/1/22,6:00:00,5.679,5.443,4.987
2010/1/22,6:30:00,5.651,5.574,4.991
2010/1/22,7:00:00,5.637,5.573,4.993
2010/1/22,7:30:00,5.589,5.403,4.996
2010/1/22,8:00:00,5.639,5.62,4.999
2010/1/22,8:30:00,5.658,5.677,5.001
2010/1/22,9:00:00,5.666,5.593,5.004
2010/1/22,9:30:00,5.621,5.529,5.006
2010/1/22,10:00:00,5.683,5.525,5.008
2010/1/22,10:30:00,5.724,5.644,5.01
2010/1/22,11:00:00,5.807,5.768,5.012
2010/1/22,11:30:00,5.851,5.831,5.014
2010/1/22,12:00:00,5.912,5.851,5.015
2010/1/22,12:30:00,6.015,5.826,5.017
2010/1/22,13:00:00,6.12,6.17,5.019
2010/1/22,13:30:00,6.207,6.191,5.02
2010/1/22,14:00:00,6.25,6.201,5.021
2010/1/22,14:30:00,6.35,6.206,5.023
2010/1/22,15:00:00,7.013,6.319,5.024
2010/1/22,15:30:00,6.939,6.296,5.026
2010/1/22,16:00:00,7.245,6.257,5.027
2010/1/22,16:30:00,7.348,6.279,5.029
2010/1/22,17:00:00,7.059,6.488,5.031
2010/1/22,17:30:00,7.069,6.51,5.033
2010/1/22,18:00:00,7.025,6.433,5.035
2010/1/22,18:30:00,7.079,6.491,5.038
2010/1/22,19:00:00,7.043,6.498,5.04
2010/1/22,19:30:00,7.19,6.505,5.043
2010/1/22,20:00:00,7.284,6.275,5.046
2010/1/22,20:30:00,7.271,6.268,5.049
2010/1/22,21:00:00,7.141,6.516,5.052
2010/1/22,21:30:00,6.884,6.512,5.055
2010/1/22,22:00:00,6.849,6.488,5.058
2010/1/22,22:30:00,6.887,6.758,5.062
2010/1/22,23:00:00,6.873,6.554,5.065
2010/1/22,23:30:00,6.743,6.513,5.069
2010/1/23,0:00:00,6.692,6.563,5.072
2010/1/23,0:30:00,6.621,6.573,5.076
2010/1/23,1:00:00,6.618,6.643,5.079
2010/1/23,1:30:00,6.535,6.49,5.083
2010/1/23,2:00:00,6.488,6.474,5.086
2010/1/23,2:30:00,6.392,6.387,5.089
2010/1/23,3:00:00,6.308,6.322,5.093
2010/1/23,3:30:00,6.226,6.196,5.096
2010/1/23,4:00:00,6.153,6.153,5.1
2010/1/23,4:30:00,6.069,6.056,5.103
2010/1/23,5:00:00,6.059,6.023,5.107
2010/1/23,5:30:00,6.011,6.038,5.11
2010/1/23,6:00:00,5.945,5.86,5.113
2010/1/23,6:30:00,5.904,5.847,5.116
2010/1/23,7:00:00,5.851,5.835,5.12
2010/1/23,7:30:00,5.769,5.78,5.123
2010/1/23,8:00:00,5.844,5.861,5.126
2010/1/23,8:30:00,5.848,5.908,5.129
2010/1/23,9:00:00,5.874,5.864,5.132
2010/1/23,9:30:00,5.926,5.951,5.135
2010/1/23,10:00:00,5.962,5.98,5.138
2010/1/23,10:30:00,6.021,6.034,5.141
2010/1/23,11:00:00,6.058,6.054,5.143
2010/1/23,11:30:00,6.107,6.102,5.145
2010/1/23,12:00:00,6.189,6.168,5.147
2010/1/23,12:30:00,6.281,6.255,5.15
2010/1/23,13:00:00,6.327,6.203,5.152
2010/1/23,13:30:00,6.499,6.499,5.154
2010/1/23,14:00:00,6.561,6.597,5.156
2010/1/23,14:30:00,6.687,6.574,5.158
2010/1/23,15:00:00,6.757,6.708,5.16
2010/1/23,15:30:00,6.932,6.507,5.162
2010/1/23,16:00:00,6.926,6.558,5.164
2010/1/23,16:30:00,7.468,6.845,5.166
2010/1/23,17:00:00,7.288,6.696,5.169
2010/1/23,17:30:00,7.255,6.729,5.171
2010/1/23,18:00:00,6.981,6.713,5.174
2010/1/23,18:30:00,6.957,6.765,5.177
2010/1/23,19:00:00,7.129,6.863,5.18
2010/1/23,19:30:00,7.122,6.817,5.183
2010/1/23,20:00:00,7.135,6.728,5.186
2010/1/23,20:30:00,7.164,6.825,5.189
2010/1/23,21:00:00,7.108,6.856,5.192
2010/1/23,21:30:00,7.069,6.711,5.196
2010/1/23,22:00:00,7.148,7.015,5.199
2010/1/23,22:30:00,7.125,7.191,5.203
2010/1/23,23:00:00,6.996,7.061,5.206
2010/1/23,23:30:00,6.874,6.946,5.21
2010/1/24,0:00:00,6.741,6.782,5.213
2010/1/24,0:30:00,6.696,6.764,5.217
2010/1/24,1:00:00,6.635,6.666,5.22
2010/1/24,1:30:00,6.503,6.546,5.224
2010/1/24,2:00:00,6.436,6.522,5.228
2010/1/24,2:30:00,6.392,6.43,5.232
2010/1/24,3:00:00,6.377,6.409,5.235
2010/1/24,3:30:00,6.326,6.264,5.239
2010/1/24,4:00:00,6.211,6.251,5.243
2010/1/24,4:30:00,6.21,6.234,5.247
2010/1/24,5:00:00,6.171,6.178,5.25
2010/1/24,5:30:00,6.173,6.151,5.254
2010/1/24,6:00:00,6.129,6.177,5.258
2010/1/24,6:30:00,6.096,6.043,5.262
2010/1/24,7:00:00,6.118,6.09,5.266
2010/1/24,7:30:00,6.149,6.121,5.269
2010/1/24,8:00:00,6.138,6.135,5.273
2010/1/24,8:30:00,6.137,6.113,5.275
2010/1/24,9:00:00,6.129,6.113,5.279
2010/1/24,9:30:00,6.152,6.178,5.282
2010/1/24,10:00:00,6.154,6.179,5.284
2010/1/24,10:30:00,6.142,6.129,5.287
2010/1/24,11:00:00,6.181,6.204,5.29
2010/1/24,11:30:00,6.288,6.26,5.292
2010/1/24,12:00:00,6.306,6.308,5.294
2010/1/24,12:30:00,6.396,6.34,5.296
2010/1/24,13:00:00,6.391,6.391,5.298
2010/1/24,13:30:00,6.441,6.4,5.3
2010/1/24,14:00:00,6.512,6.466,5.302
2010/1/24,14:30:00,6.614,6.472,5.304
2010/1/24,15:00:00,6.712,6.587,5.306
2010/1/24,15:30:00,6.945,6.938,5.308
2010/1/24,16:00:00,6.968,6.946,5.31
2010/1/24,16:30:00,7.047,6.905,5.312
2010/1/24,17:00:00,7.031,6.904,5.314
2010/1/24,17:30:00,7.121,6.971,5.316
2010/1/24,18:00:00,7.093,6.95,5.318
2010/1/24,18:30:00,7.525,6.985,5.321
2010/1/24,19:00:00,7.566,6.978,5.323
2010/1/24,19:30:00,7.508,6.957,5.326
2010/1/24,20:00:00,7.431,6.895,5.329
2010/1/24,20:30:00,7.407,7.119,5.332
2010/1/24,21:00:00,7.376,6.713,5.335
2010/1/24,21:30:00,7.306,6.851,5.338
2010/1/24,22:00:00,7.129,6.894,5.341
2010/1/24,22:30:00,7.111,6.92,5.344
2010/1/24,23:00:00,7.057,6.938,5.347
2010/1/24,23:30:00,7.097,6.861,5.35
2010/1/25,0:00:00,7.031,6.916,5.353
2010/1/25,0:30:00,6.898,6.839,5.356
2010/1/25,1:00:00,6.928,6.886,5.36
2010/1/25,1:30:00,6.826,6.891,5.363
2010/1/25,2:00:00,6.847,6.808,5.366
2010/1/25,2:30:00,6.792,6.789,5.369
2010/1/25,3:00:00,6.77,6.731,5.372
2010/1/25,3:30:00,6.738,6.59,5.375
2010/1/25,4:00:00,6.682,6.569,5.378
2010/1/25,4:30:00,6.51,6.55,5.381
2010/1/25,5:00:00,6.205,6.217,5.384
2010/1/25,5:30:00,6.182,6.267,5.387
2010/1/25,6:00:00,6.184,6.22,5.39
2010/1/25,6:30:00,6.133,6.117,5.393
2010/1/25,7:00:00,6.099,6.118,5.395
2010/1/25,7:30:00,6.075,6.101,5.398
2010/1/25,8:00:00,6.076,6.078,5.401
2010/1/25,8:30:00,6.102,6.124,5.403
2010/1/25,9:00:00,6.15,6.176,5.405
2010/1/25,9:30:00,6.179,6.197,5.408
2010/1/25,10:00:00,6.201,6.221,5.41
2010/1/25,10:30:00,6.27,6.273,5.412
2010/1/25,11:00:00,6.312,6.301,5.414
2010/1/25,11:30:00,6.339,6.337,5.415
2010/1/25,12:00:00,6.408,6.383,5.417
2010/1/25,12:30:00,6.439,6.39,5.418
2010/1/25,13:00:00,6.536,6.413,5.419
2010/1/25,13:30:00,6.659,6.447,5.421
2010/1/25,14:00:00,6.758,6.794,5.422
2010/1/25,14:30:00,6.838,6.858,5.423
2010/1/25,15:00:00,7.079,6.91,5.424
2010/1/25,15:30:00,7.053,6.815,5.426
2010/1/25,16:00:00,7.264,6.919,5.427
2010/1/25,16:30:00,7.179,6.951,5.429
2010/1/25,17:00:00,7.646,6.956,5.43
2010/1/25,17:30:00,7.547,7.044,5.432
2010/1/25,18:00:00,7.446,6.869,5.433
2010/1/25,18:30:00,7.526,6.927,5.436
2010/1/25,19:00:00,7.505,6.984,5.437
2010/1/25,19:30:00,7.609,7.082,5.44
2010/1/25,20:00:00,7.554,6.995,5.442
2010/1/25,20:30:00,7.533,7.046,5.444
2010/1/25,21:00:00,7.435,6.989,5.447
2010/1/25,21:30:00,7.43,6.965,5.449
2010/1/25,22:00:00,7.398,6.963,5.452
2010/1/25,22:30:00,7.328,6.946,5.455
2010/1/25,23:00:00,7.2,6.981,5.457
2010/1/25,23:30:00,7.132,6.93,5.46
2010/1/26,0:00:00,7.081,7.031,5.463
2010/1/26,0:30:00,7.064,6.925,5.465
2010/1/26,1:00:00,7.065,6.882,5.468
2010/1/26,1:30:00,7.001,6.912,5.47
2010/1/26,2:00:00,6.951,6.846,5.473
2010/1/26,2:30:00,6.923,6.807,5.475
2010/1/26,3:00:00,6.853,6.706,5.478
2010/1/26,3:30:00,6.797,6.652,5.481
2010/1/26,4:00:00,6.739,6.64,5.483
2010/1/26,4:30:00,6.693,6.55,5.486
2010/1/26,5:00:00,6.684,6.598,5.488
2010/1/26,5:30:00,6.642,6.495,5.49
2010/1/26,6:00:00,6.578,6.528,5.492
2010/1/26,6:30:00,6.55,6.315,5.494
2010/1/26,7:00:00,6.48,6.344,5.497
2010/1/26,7:30:00,6.462,6.351,5.499
2010/1/26,8:00:00,6.417,6.349,5.501
2010/1/26,8:30:00,6.431,6.349,5.502
2010/1/26,9:00:00,6.409,6.386,5.504
2010/1/26,9:30:00,6.405,6.325,5.506
2010/1/26,10:00:00,6.422,6.348,5.508
2010/1/26,10:30:00,6.455,6.38,5.509
2010/1/26,11:00:00,6.452,6.421,5.51
2010/1/26,11:30:00,6.51,6.449,5.512
2010/1/26,12:00:00,6.548,6.478,5.513
2010/1/26,12:30:00,6.652,6.475,5.514
2010/1/26,13:00:00,6.711,6.761,5.515
2010/1/26,13:30:00,6.751,6.79,5.516
2010/1/26,14:00:00,6.802,6.845,5.517
2010/1/26,14:30:00,6.914,6.842,5.518
2010/1/26,15:00:00,6.958,6.897,5.519
2010/1/26,15:30:00,7.36,6.898,5.52
2010/1/26,16:00:00,7.308,6.936,5.521
2010/1/26,16:30:00,7.464,6.933,5.522
2010/1/26,17:00:00,7.673,7.028,5.523
2010/1/26,17:30:00,7.596,7.117,5.524
2010/1/26,18:00:00,7.559,7.239,5.526